ONEWEB-0080 (45426 NORAD) Tracking and Keplerian Element Data

This shows tracking and keplerian element data for the satellite.

Feedback or suggestion? Click here.




ElementValue
Catalog45426
NameONEWEB-0080
Epoch Orbit3220
Epoch Day297.91667824
Epoch Year2020
RAAN71.775
Inclination87.7911
Eccentricity0.0026298
Argument of Perigee233.6887
Mean Anonmoly56.9966
Mean Motion13.98300651
Decay Rate-0.00017147
L11 45426U 20020C 20297.91667824 -.00017147 00000-0 -12033-1 0 9990
L22 45426 87.7911 71.7750 0026298 233.6887 56.9966 13.98300651 32201

Live tracking and technical data element details for ONEWEB-0080 (NORAD 45426). ONEWEB-0080 can be tracked NOW for your location showing map with azimuth and elevation plus other details from your city location.

Track the satellite on the map from your city or location and see movement details for azimuth, elevation, latitude, longitude, range, height, and movement on the map or in text.







IsCatalogInMostPopularTable: catalog: 45426, numindb: 49
Update: records affected: 1



GetName: 45426 ONEWEB-0080

Hit Count: updated at: Sat, 24 Oct 2020 23:39:00 GMT